DW9167 Weather Reports


Display with metric or nautical units.
time (UTC)temp
F
wind
direction
speed
MPH
gust
MPH
rain 1hr
in
rain 24hr
in
rain mn
in
humidity
%
barometer
mb
20260903230714 87 124 2.0 5.0 0.00 0.00 0.00 67 1002.3
20260903225714 88 132 4.0 7.0 0.00 0.00 0.00 65 1002.1
20260903224715 89 111 3.0 5.0 0.00 0.00 0.00 62 1001.7
20260903223717 91 141 3.0 5.0 0.00 0.00 0.00 52 1001.4
20260903222813 92 119 4.0 8.0 0.00 0.00 0.00 51 1001.4
20260903221815 93 130 4.0 8.0 0.00 0.00 0.00 50 1001.1
20260903220818 94 125 3.0 6.0 0.00 0.00 0.00 48 1000.7
20260903214914 94 112 1.0 4.0 0.00 0.00 0.00 49 1000.7
20260903213916 94 90 2.0 5.0 0.00 0.00 0.00 49 1001.1
20260903212917 94 106 3.0 6.0 0.00 0.00 0.00 49 1000.7
20260903212016 96 162 0.0 3.0 0.00 0.00 0.00 47 1000.7
20260903211017 96 139 1.0 3.0 0.00 0.00 0.00 45 1000.7
20260903205015 97 141 0.0 0.0 0.00 0.00 0.00 46 1000.7
20260903204017 97 164 0.0 2.0 0.00 0.00 0.00 47 1001.1
20260903202015 95 239 2.0 6.0 0.00 0.00 0.00 47 1001.4
20260903201017 96 112 0.0 0.0 0.00 0.00 0.00 48 1001.4
20260903200115 96 169 0.0 0.0 0.00 0.00 0.00 48 1001.4
20260903195116 96 90 1.0 3.0 0.00 0.00 0.00 48 1001.4
20260903194115 97 157 0.0 0.0 0.00 0.00 0.00 47 1001.4
20260903191216 96 180 0.0 0.0 0.00 0.00 0.00 48 1002.1
20260903190214 96 193 1.0 3.0 0.00 0.00 0.00 49 1002.1
20260903185214 97 164 1.0 5.0 0.00 0.00 0.00 48 1002.4
20260903184215 96 90 0.0 0.0 0.00 0.00 0.00 50 1002.8
20260903183214 95 24 0.0 1.0 0.00 0.00 0.00 49 1003.2
20260903182214 94 170 2.0 6.0 0.00 0.00 0.00 51 1003.5
20260903181313 94 114 2.0 4.0 0.00 0.00 0.00 50 1003.5
20260903180314 94 216 1.0 5.0 0.00 0.00 0.00 52 1003.8
20260903175414 93 157 3.0 6.0 0.00 0.00 0.00 51 1003.8
20260903173515 93 157 1.0 4.0 0.00 0.00 0.00 52 1004.2
20260903172516 92 210 3.0 7.0 0.00 0.00 0.00 54 1004.2
20260903171517 92 232 1.0 5.0 0.00 0.00 0.00 55 1004.5
20260903170516 91 170 2.0 6.0 0.00 0.00 0.00 57 1004.5
20260903164613 89 158 4.0 10.0 0.00 0.00 0.00 60 1004.5
20260903164515 90 168 5.0 10.0 0.00 0.00 0.00 61 1004.5
20260903162515 89 175 3.0 5.0 0.00 0.00 0.00 63 1004.9
20260903160613 87 107 1.0 7.0 0.00 0.00 0.00 68 1004.9
20260903155616 88 181 3.0 10.0 0.00 0.00 0.00 67 1004.5
20260903154617 88 206 4.0 8.0 0.00 0.00 0.00 67 1004.9
20260903153714 87 154 2.0 5.0 0.00 0.00 0.00 70 1004.9
20260903152715 86 126 0.0 2.0 0.00 0.00 0.00 72 1004.9
20260903151717 84 148 1.0 5.0 0.00 0.00 0.00 75 1005.1
20260903150718 83 171 3.0 6.0 0.00 0.00 0.00 78 1005.4
20260903145715 83 171 2.0 7.0 0.00 0.00 0.00 79 1005.6
20260903144714 83 180 2.0 5.0 0.00 0.00 0.00 79 1005.4
20260903143714 82 172 2.0 5.0 0.00 0.00 0.00 81 1005.4
20260903142716 82 175 4.0 7.0 0.00 0.00 0.00 82 1005.6
20260903141714 81 207 5.0 9.0 0.00 0.00 0.00 84 1005.6
20260903140715 81 171 3.0 6.0 0.00 0.00 0.00 86 1005.6
20260903135813 80 165 2.0 9.0 0.00 0.00 0.00 87 1005.6
20260903134814 80 153 2.0 5.0 0.00 0.00 0.00 88 1005.6
20260903133815 80 349 2.0 5.0 0.00 0.00 0.00 90 1005.6
20260903132815 80 170 1.0 5.0 0.00 0.00 0.00 92 1005.9
20260903131814 80 137 1.0 5.0 0.00 0.00 0.00 93 1005.9
20260903130817 79 177 0.0 2.0 0.00 0.00 0.00 94 1005.9
20260903125914 79 180 1.0 4.0 0.00 0.00 0.00 95 1005.9
20260903125013 79 175 3.0 5.0 0.00 0.00 0.00 96 1005.6
20260903124013 78 180 2.0 5.0 0.00 0.00 0.00 96 1005.6
20260903123015 78 153 1.0 5.0 0.00 0.00 0.00 96 1005.9
20260903122014 78 180 1.0 3.0 0.00 0.00 0.00 96 1005.6
20260903120113 78 180 1.0 4.0 0.00 0.00 0.00 97 1005.6
20260903115113 78 174 0.0 2.0 0.00 0.00 0.00 97 1005.6
20260903114116 78 177 2.0 6.0 0.00 0.00 0.00 97 1005.6
20260903113213 78 180 1.0 4.0 0.00 0.00 0.00 97 1005.6
20260903112214 78 184 2.0 6.0 0.00 0.00 0.00 97 1005.2
20260903111216 78 177 3.0 6.0 0.00 0.00 0.00 97 1005.2
20260903105213 78 180 0.0 0.0 0.00 0.00 0.00 97 1005.2
20260903104216 78 157 1.0 2.0 0.00 0.00 0.00 97 1005.2
20260903104117 78 172 2.0 5.0 0.00 0.00 0.00 97 1005.2
20260903103115 78 73 1.0 5.0 0.00 0.00 0.00 97 1005.2
20260903102115 78 162 2.0 6.0 0.00 0.00 0.00 97 1005.2
20260903101213 78 157 2.0 6.0 0.00 0.00 0.00 97 1005.2
20260903100214 78 180 0.0 3.0 0.00 0.00 0.00 97 1005.2
20260903095215 78 165 1.0 6.0 0.00 0.00 0.00 97 1005.2
20260903094314 78 96 1.0 4.0 0.00 0.00 0.00 97 1005.2
20260903093316 78 268 0.0 1.0 0.00 0.00 0.00 97 1005.2
20260903092415 78 160 1.0 6.0 0.00 0.00 0.00 97 1005.6
20260903091414 78 166 2.0 6.0 0.00 0.00 0.00 96 1005.6
20260903090416 78 140 0.0 5.0 0.00 0.00 0.00 96 1005.6
20260903085413 78 157 0.0 0.0 0.00 0.00 0.00 96 1005.6
20260903084416 78 180 0.0 0.0 0.00 0.00 0.00 96 1005.6
20260903083515 78 167 2.0 5.0 0.00 0.00 0.00 96 1005.6
20260903082514 78 180 0.0 1.0 0.00 0.00 0.00 95 1005.6
20260903080516 78 178 0.0 2.0 0.00 0.00 0.00 95 1005.2
20260903075515 78 150 0.0 4.0 0.00 0.00 0.00 95 1005.2
20260903074514 79 180 1.0 4.0 0.00 0.00 0.00 94 1005.6
20260903073514 79 176 0.0 3.0 0.00 0.00 0.00 93 1005.6
20260903071514 79 180 2.0 7.0 0.00 0.00 0.00 92 1005.6
20260903070517 79 176 0.0 2.0 0.00 0.00 0.00 91 1005.6
20260903063513 80 154 1.0 2.0 0.00 0.00 0.00 87 1005.6
20260903062514 80 179 2.0 8.0 0.00 0.00 0.00 85 1005.6
20260903061517 80 173 2.0 5.0 0.00 0.00 0.00 83 1005.6
20260903060614 80 166 0.0 4.0 0.00 0.00 0.00 81 1005.6
20260903055615 80 163 3.0 6.0 0.00 0.00 0.00 79 1005.6
20260903054613 81 216 2.0 6.0 0.00 0.00 0.00 77 1005.6
20260903053614 81 167 0.0 4.0 0.00 0.00 0.00 75 1005.2
20260903052615 81 158 3.0 8.0 0.00 0.00 0.00 74 1005.2
20260903051614 81 151 1.0 5.0 0.00 0.00 0.00 74 1005.6
20260903050713 81 191 1.0 9.0 0.00 0.00 0.00 74 1005.4
20260903045719 81 160 2.0 6.0 0.00 0.00 0.00 74 1005.2
20260903043718 81 168 0.0 2.0 0.00 0.00 0.00 73 1005.2
20260903042717 81 112 2.0 5.0 0.00 0.00 0.00 74 1005.2
20260903041718 81 135 0.0 2.0 0.00 0.00 0.00 76 1005.2
20260903040719 81 135 2.0 4.0 0.00 0.00 0.00 76 1005.2
20260903034718 82 156 2.0 6.0 0.00 0.00 0.00 74 1005.2
20260903033719 83 112 2.0 4.0 0.00 0.00 0.00 71 1005.0
20260903032719 84 100 2.0 5.0 0.00 0.00 0.00 68 1004.7
20260903030720 85 112 0.0 0.0 0.00 0.00 0.00 63 1004.3
20260903025718 85 154 0.0 4.0 0.00 0.00 0.00 63 1004.0
20260903024719 85 157 0.0 0.0 0.00 0.00 0.00 62 1003.6
20260903023719 86 157 0.0 0.0 0.00 0.00 0.00 61 1003.3
20260903021819 87 112 1.0 2.0 0.00 0.00 0.00 59 1002.8
20260903020819 87 67 0.0 0.0 0.00 0.00 0.00 57 1002.8
20260903014819 87 67 0.0 2.0 0.00 0.00 0.00 56 1002.1
20260903013917 88 67 0.0 0.0 0.00 0.00 0.00 55 1002.1
20260903012919 88 67 0.0 0.0 0.00 0.00 0.00 54 1002.1
20260903012018 88 73 0.0 2.0 0.00 0.00 0.00 54 1002.1
20260903011020 88 67 0.0 2.0 0.00 0.00 0.00 53 1002.1
20260903010019 89 67 0.0 0.0 0.00 0.00 0.00 53 1002.1
20260903005020 89 67 2.0 4.0 0.00 0.00 0.00 52 1002.1
20260903004019 90 45 0.0 0.0 0.00 0.00 0.00 51 1001.7
20260903002117 92 90 2.0 3.0 0.00 0.00 0.00 47 1001.7
20260903001119 94 52 2.0 6.0 0.00 0.00 0.00 44 1001.4
20260903000119 96 67 1.0 3.0 0.00 0.00 0.00 45 1001.1
20260902235119 98 315 0.0 2.0 0.00 0.00 0.00 41 1000.7
20260902234119 98 318 1.0 3.0 0.00 0.00 0.00 39 1000.7
20260902233118 98 160 0.0 4.0 0.00 0.00 0.00 40 1000.7
20260902232117 98 308 3.0 6.0 0.00 0.00 0.00 38 1000.7